[[{"header":{"parameterUnit":"m.s-1","parameterCategory":1,"la1":30.2991,"la2":30.254,"lo1":-89.0895,"lo2":-89.0444,"dy":0.0017,"dx":0.0017,"nx":28,"ny":28,"refTime":"2024-05-08T09:00:00:Z","depth":0,"parameterNumber":2,"parameterNumberName":"U-component_of_WINDS"},"data":[0,0,0,0,0,0,0,0,0,0,0,0,0,0,0,0,0,0,0,0,0,0,0,0,0,0,0,0,0,0,0,0,0,0,0,0,0,0,0,0,0,0,0,0,0,0,0,0,0,0,0,0,0,0,0,0,0,0,0.9914,0.9914,0,0.9961,0.9961,0.9962,0.9945,0.9944,0.9943,0.9942,0.9989,0.9991,0.9993,0,0,0,0,0,0,0,0,0,0,0,0,0,0.9806,0.9808,0.9914,0.9914,0.9915,0.9961,0.9961,0.9962,0.9946,0.9944,0.9943,0.9942,0.9988,0.9991,0.9993,0,0,0,0,0,0,0,0,0,0,0,0,0,0.9853,0.9809,0.9914,0.9912,0.9913,0.9961,0.9961,0.9962,0.9946,0.9944,0.9943,0.9941,0.9987,0.999,0.9994,1.0045,0,0,1.0004,1.0005,0,0,0,0,0,0,0,0,0.985,0.9857,0.9912,0.9912,0.9913,0.9946,0.9941,0.999,0.9946,0.9933,0.9942,0.9941,0.9976,0.998,0.9992,1.0047,1.0049,1.0004,1.0006,1.0007,1.0008,0,0,0,0,0,0,0,0.9847,0.9855,0.9932,0.9913,0.9913,0.9908,0.9913,0.995,0.9962,0.9934,0.9933,0.9939,0.9975,0.9989,0.9993,1.005,1.0004,1.0007,1.0009,1.001,1.0148,1.0149,0,0,0,0,0,0,0.9844,0.9852,0.9931,0.9934,0.9877,0.9911,0.9917,0.9937,0.9962,0.9964,0.994,0.9938,0.9984,0.9989,0.9994,1.0055,1.0007,1.001,1.0012,1.0146,1.0148,1.015,0,0,0,0,0,0,0.9842,0.9851,0.9929,0.9893,0.9902,0.9915,0.9937,0.9939,0.9952,0.9967,0.9969,0.9952,0.9983,0.999,1.0032,1.0056,1.0012,1.0015,1.0144,1.0147,1.0149,1.0177,0,0,0,0,0,0,0.9839,0.9851,0.9871,0.9893,0.9904,0.9967,0.9939,0.9941,0.9958,0.9955,0.9978,0.998,0.9982,1.0027,1.0036,1.006,1.0018,1.0142,1.0145,1.0148,1.0174,1.018,1.0185,0,0,0,0,0,0.9835,0.9877,0.9872,0.9882,0.993,0.9969,0.9975,0.9977,0.996,0.998,0.9989,0.9979,1.0053,1.0032,1.0041,1.0067,1.014,1.0144,1.0148,1.0171,1.0179,1.0185,0,0,0,0,0,0,0.9857,0.988,0.9875,0.9926,0.9945,0.9966,0.9991,0.9985,1.0009,1.0006,1.0007,1.0012,1.0055,1.0065,1.0042,1.0117,1.0094,1.0099,1.0108,1.0116,1.0121,1.0117,1.002,0,0,0,0,0,0.9868,0.9898,0.9916,0.9959,0.9969,0.9979,0.9995,0.9995,1.0015,1.0023,1.0036,1.0055,1.0082,1.0099,1.0125,1.0176,1.0179,1.0198,1.0203,1.0208,1.0212,1.0238,1.0245,1.0162,1.0162,1.0162,0,0,0.989,0.9907,0.9926,0.9964,0.9979,1.0008,0.9986,1.0018,1.004,1.0028,1.0068,1.0078,1.0099,1.0145,1.0166,1.0155,1.0236,1.0213,1.0216,1.0218,1.0242,1.025,1.0257,1.0165,1.0164,1.0164,0,0,0.9946,0.9963,0.9999,1.0015,1.0038,1.0044,1.0052,1.0074,1.008,1.0121,1.0111,1.0137,1.0184,1.0199,1.0213,1.0273,1.0264,1.0281,1.031,1.0335,1.0342,1.0347,1.0367,1.0374,1.0286,1.0286,1.0286,0,0.9971,1.0016,1.0019,1.0052,1.0068,1.0059,1.0095,1.011,1.014,1.0151,1.0138,1.0196,1.021,1.0258,1.0272,1.0285,1.0293,1.0278,1.0341,1.0346,1.0352,1.037,1.0378,1.0288,1.0287,1.0287,1.0287,0,1.0044,1.0076,1.0103,1.0132,1.0151,1.0186,1.0192,1.0211,1.0209,1.0216,1.0256,1.0273,1.0301,1.0312,1.0311,1.036,1.0352,1.034,1.0317,1.0362,1.0379,1.0386,1.029,1.029,1.0289,1.0289,0,0,1.0115,1.0145,1.0155,1.0167,1.0192,1.0215,1.0249,1.0277,1.0292,1.0313,1.034,1.0379,1.0368,1.0383,1.0383,1.0405,1.0449,1.039,1.0391,1.0399,1.0502,1.051,1.0518,1.0444,1.0445,1.0447,1.05,0,1.0172,1.0231,1.0233,1.0287,1.0315,1.0306,1.0335,1.0352,1.0359,1.0382,1.039,1.0417,1.0401,1.041,1.0431,1.0439,1.047,1.0436,1.0467,1.0468,1.0461,1.0528,1.0537,1.0586,1.0507,1.0508,1.0509,0,1.0245,1.0269,1.0325,1.0344,1.0356,1.0382,1.0406,1.043,1.0448,1.0452,1.0469,1.0465,1.0497,1.0474,1.0518,1.0494,1.0507,1.0513,1.0515,1.0517,1.049,1.053,1.0602,1.0609,1.052,1.0519,1.0518,0,1.0289,1.0334,1.0373,1.0385,1.0408,1.0426,1.0437,1.0454,1.047,1.0492,1.0502,1.0527,1.054,1.0559,1.0561,1.0544,1.0605,1.0582,1.0607,1.0607,1.0619,1.0618,1.0693,1.063,1.063,1.063,1.063,0,1.0351,1.0385,1.0393,1.0417,1.0454,1.0456,1.0493,1.0502,1.0518,1.0542,1.0536,1.0559,1.0562,1.0585,1.0587,1.0622,1.0628,1.0631,1.063,1.063,1.063,1.0638,1.0634,1.0632,1.0631,1.0631,1.0631,0,1.0405,1.0412,1.0454,1.0473,1.0478,1.0505,1.052,1.0542,1.0549,1.0579,1.0587,1.0596,1.0623,1.0627,1.0659,1.066,1.0701,1.0699,1.0695,1.0694,1.0718,1.0715,1.08,1.081,1.0742,1.0743,1.0743,0,1.0443,1.0469,1.0491,1.0507,1.0519,1.0545,1.0561,1.0564,1.0581,1.0603,1.0622,1.0649,1.067,1.0713,1.0721,1.0745,1.0742,1.077,1.0745,1.0743,1.074,1.0738,1.0739,1.0774,1.0775,1.0775,1.0776,0,1.0509,1.0511,1.0536,1.0561,1.058,1.06,1.0618,1.0632,1.0637,1.0656,1.0683,1.07,1.0731,1.0757,1.078,1.079,1.0783,1.0783,1.079,1.0789,1.0785,1.0786,1.0706,1.0781,1.0781,1.078,1.078,1.078,1.0556,1.0578,1.0596,1.0623,1.0637,1.0654,1.0675,1.0684,1.0707,1.0734,1.0734,1.0763,1.078,1.0811,1.0822,1.0844,1.0835,1.0845,1.0847,1.0849,1.0851,1.0783,1.0848,1.0848,1.0848,1.0848,1.0848,0,1.062,1.0631,1.0656,1.0682,1.0702,1.0695,1.0715,1.0732,1.0758,1.0775,1.0796,1.0826,1.0851,1.0861,1.0885,1.0901,1.0898,1.0907,1.0905,1.0906,1.0859,1.085,1.0908,1.0908,1.0908,1.0908,1.0908,1.0908,1.0655,1.0692,1.0696,1.0739,1.075,1.0779,1.0791,1.0806,1.0819,1.0854,1.0874,1.0881,1.0895,1.0919,1.0941,1.0943,1.0951,1.0961,1.0962,1.0916,1.091,1.0904,1.0896,1.0963,1.0963,1.1007,1.1008,1.1008]},{"header":{"parameterUnit":"m.s-1","parameterCategory":1,"la1":30.2991,"la2":30.254,"lo1":-89.0895,"lo2":-89.0444,"dy":0.0017,"dx":0.0017,"nx":28,"ny":28,"refTime":"2024-05-08T09:00:00:Z","depth":0,"parameterNumber":3,"parameterNumberName":"V-component_of_WINDS"},"data":[0,0,0,0,0,0,0,0,0,0,0,0,0,0,0,0,0,0,0,0,0,0,0,0,0,0,0,0,0,0,0,0,0,0,0,0,0,0,0,0,0,0,0,0,0,0,0,0,0,0,0,0,0,0,0,0,0,0,5.2861,5.2863,0,5.3024,5.3025,5.3027,5.3022,5.302,5.3018,5.3015,5.3177,5.3183,5.3189,0,0,0,0,0,0,0,0,0,0,0,0,0,5.2539,5.2545,5.2861,5.2863,5.2865,5.3023,5.3025,5.3028,5.3022,5.302,5.3017,5.3014,5.3174,5.3182,5.319,0,0,0,0,0,0,0,0,0,0,0,0,0,5.2688,5.2547,5.2861,5.2882,5.2885,5.3023,5.3026,5.3028,5.3023,5.302,5.3016,5.3013,5.3172,5.3181,5.3191,5.3317,0,0,5.322,5.3224,0,0,0,0,0,0,0,0,5.268,5.27,5.2876,5.288,5.2885,5.2999,5.2971,5.3125,5.3024,5.297,5.3015,5.3012,5.312,5.3133,5.3171,5.3324,5.3331,5.3221,5.3226,5.3231,5.3233,0,0,0,0,0,0,0,5.2669,5.2693,5.2925,5.2879,5.2884,5.2881,5.2898,5.3,5.3062,5.2975,5.2975,5.2994,5.3121,5.3162,5.3175,5.3333,5.322,5.3229,5.3235,5.3239,5.3595,5.3599,0,0,0,0,0,0,5.2655,5.2684,5.292,5.293,5.2772,5.2889,5.2909,5.2966,5.3061,5.3072,5.2997,5.2994,5.3147,5.3164,5.3181,5.3333,5.323,5.3239,5.3245,5.3592,5.3596,5.36,0,0,0,0,0,0,5.2649,5.2677,5.2913,5.2807,5.2837,5.2898,5.2962,5.2971,5.3011,5.3078,5.3088,5.3028,5.3145,5.3167,5.3283,5.3339,5.3244,5.3252,5.3587,5.3593,5.3598,5.364,0,0,0,0,0,0,5.2639,5.2674,5.2724,5.2809,5.2843,5.3015,5.2966,5.2976,5.3028,5.3025,5.3109,5.312,5.3144,5.3268,5.3292,5.335,5.326,5.3582,5.359,5.3596,5.3634,5.3646,5.3657,0,0,0,0,0,5.2628,5.2729,5.2727,5.2755,5.2907,5.3018,5.3038,5.3066,5.3033,5.3083,5.3125,5.3117,5.3329,5.328,5.3307,5.3368,5.3579,5.3588,5.3596,5.3628,5.3644,5.3656,0,0,0,0,0,0,5.2648,5.274,5.2739,5.2871,5.2937,5.3017,5.3081,5.3081,5.3156,5.315,5.318,5.3199,5.3314,5.3353,5.3297,5.3494,5.3449,5.3464,5.3465,5.348,5.3491,5.3479,5.3268,0,0,0,0,0,5.2668,5.2752,5.2827,5.2936,5.2969,5.3019,5.3069,5.3085,5.3154,5.3181,5.3232,5.3297,5.3379,5.3431,5.351,5.3639,5.3656,5.3694,5.3706,5.3715,5.3727,5.3796,5.3813,5.3628,5.3628,5.3628,0,0,5.2709,5.277,5.2821,5.2941,5.2994,5.3079,5.3043,5.3134,5.3197,5.3194,5.3307,5.3346,5.3421,5.3544,5.36,5.358,5.3782,5.3726,5.3732,5.3739,5.3806,5.3824,5.3839,5.3634,5.3633,5.3632,0,0,5.2828,5.2883,5.2979,5.3033,5.3115,5.3147,5.317,5.3251,5.3277,5.3391,5.339,5.3464,5.3604,5.3657,5.3702,5.3839,5.3834,5.3864,5.3924,5.3991,5.4006,5.4019,5.4067,5.4084,5.3875,5.3876,5.3876,0,5.2868,5.2998,5.3028,5.312,5.3172,5.3175,5.3271,5.3321,5.3423,5.3458,5.3434,5.3608,5.3659,5.3793,5.3827,5.3864,5.3889,5.3854,5.4002,5.4015,5.4028,5.4074,5.4092,5.3879,5.3878,5.3878,5.3878,0,5.3043,5.3133,5.32,5.3301,5.336,5.3453,5.3495,5.3551,5.3561,5.3595,5.371,5.3771,5.3861,5.3894,5.3905,5.403,5.4014,5.3996,5.3951,5.4048,5.4091,5.4109,5.3883,5.3882,5.3881,5.388,0,0,5.318,5.3295,5.3319,5.3364,5.3453,5.3522,5.3614,5.3704,5.3751,5.3821,5.3898,5.4015,5.3998,5.405,5.4066,5.4125,5.4228,5.4099,5.4101,5.412,5.4368,5.4381,5.4401,5.4226,5.4229,5.4232,5.4361,0,5.3307,5.3474,5.3502,5.3647,5.3729,5.3732,5.3812,5.3875,5.3909,5.3981,5.4018,5.4101,5.4073,5.4104,5.4163,5.4203,5.4278,5.4194,5.4295,5.4299,5.4276,5.4424,5.4438,5.4558,5.4378,5.4381,5.4384,0,5.3478,5.3554,5.3707,5.3785,5.382,5.3892,5.3975,5.4046,5.4115,5.4136,5.4193,5.4202,5.4296,5.4247,5.4375,5.4318,5.4361,5.4387,5.4392,5.4402,5.4347,5.4437,5.4596,5.4614,5.4411,5.4409,5.4407,0,5.3561,5.3701,5.381,5.3849,5.3942,5.3992,5.4033,5.4099,5.4151,5.4223,5.4257,5.4339,5.4383,5.4445,5.4475,5.4437,5.4601,5.4555,5.4619,5.4618,5.4653,5.465,5.4821,5.4682,5.4681,5.4681,5.4681,0,5.37,5.3793,5.3849,5.3916,5.402,5.4051,5.4152,5.4191,5.425,5.4323,5.433,5.4399,5.4434,5.4507,5.4531,5.4633,5.4653,5.4671,5.4676,5.467,5.4667,5.4698,5.469,5.4686,5.4685,5.4684,5.4683,0,5.3809,5.3851,5.397,5.4049,5.4071,5.4143,5.4209,5.4274,5.4307,5.44,5.4423,5.4475,5.4561,5.4597,5.4702,5.4718,5.4835,5.4834,5.4812,5.4813,5.4874,5.4868,5.507,5.5097,5.4941,5.4942,5.4943,0,5.3895,5.3967,5.4054,5.4104,5.4147,5.4228,5.4281,5.4313,5.4367,5.4452,5.4505,5.4591,5.4662,5.4799,5.4845,5.4925,5.4926,5.4991,5.4938,5.4929,5.4925,5.4921,5.4927,5.5,5.5002,5.5003,5.5004,0,5.4042,5.4059,5.4136,5.4221,5.4284,5.4351,5.4417,5.4457,5.4499,5.4559,5.4648,5.4703,5.4811,5.4896,5.4978,5.5018,5.5018,5.5021,5.5039,5.5034,5.5018,5.5026,5.4837,5.5016,5.5015,5.5014,5.5013,5.5013,5.4142,5.4206,5.4277,5.4362,5.4415,5.4476,5.454,5.4581,5.4657,5.4748,5.4762,5.4856,5.4922,5.5033,5.5076,5.5149,5.5132,5.5159,5.5166,5.5172,5.5176,5.5007,5.5164,5.5163,5.5163,5.5163,5.5163,0,5.4289,5.4335,5.4413,5.4505,5.4571,5.4567,5.4639,5.4694,5.4778,5.484,5.491,5.5011,5.5093,5.5145,5.5227,5.5275,5.5277,5.5296,5.5292,5.5301,5.5187,5.5162,5.5293,5.5293,5.5293,5.5293,5.5293,5.5293,5.4373,5.4481,5.4505,5.4638,5.4682,5.4776,5.4817,5.4873,5.4923,5.5036,5.5105,5.5138,5.5196,5.5283,5.5357,5.537,5.5399,5.5419,5.5431,5.5323,5.5309,5.5296,5.5273,5.5425,5.5426,5.5539,5.554,5.5541]}]]